Location: Rancho Del Sol Observatory
(38.7214°N, 120.6350°W)
Time: 03:35:30
(UTC-08:00)

Courier 1B Rocket - Pass Details

Date: 29 January 2020
Orbit: 920 x 1202 km, 28.2° (Epoch: 22 February)

Event Time Altitude Azimuth Distance (km) Brightness Sun altitude
Rises 13:16:56 0° 261° (W) 3,945 8.5 31.6°
Reaches altitude 10° 13:20:10 10° 250° (WSW) 2,940 8.1 31.4°
Maximum altitude 13:26:10 29° 194° (SSW) 1,804 9.5 31.0°
Drops below altitude 10° 13:31:49 10° 136° (SE) 2,759 7.8 30.6°
Sets 13:34:45 0° 125° (SE) 3,665 8.2 30.4°
